Regional Weather Roundup
Issued by NWS Kansas City/Pleasant Hill, MO

Home | Current Version | Previous Version | Graphics & Text | Print | Product List | Glossary Off
Versions: 1 2 3 4 5 6 7 8 9 10 11 12 13 14 15 16 17 18 19 20 21 22 23 24 25 26 27 28 29 30 31 32 33 34 35 36 37 38 39 40 41 42 43 44 45 46 47 48 49 50

000
ASUS43 KEAX 031710
RWREAX

WEATHER ROUNDUP FOR EASTERN KANSAS AND NORTHWEST MISSOURI
NATIONAL WEATHER SERVICE KANSAS CITY/PLEASANT HILL MO
1100 AM CST TUE MAR 03 2015

KSZ040-057-103>105-MOZ028-029-037-043-031800-
...KANSAS CITY METROPOLITAN AREA...

CITY           SKY/WX    TMP DP  RH WIND       PRES   REMARKS
K.C. INTL      CLOUDY    43  39  86 SW10      29.76R
K.C. DOWNTOWN  CLOUDY    45  38  76 W13       29.77R
LEES SUMMIT    CLOUDY    42  39  89 SW16G28   29.77R WCI  34
OLATHE - IXD   CLOUDY    45  40  82 SW17      29.78R
OLATHE - OJC   CLOUDY    44  40  85 W15       29.76R
LAWRENCE       CLOUDY    47  37  68 W14       29.77R

$$

MOZ001>008-011>017-020>025-030>033-038>040-044>046-053-054-031800-
...NORTHERN AND CENTRAL MISSOURI...

CITY           SKY/WX    TMP DP  RH WIND       PRES   REMARKS
ST. JOSEPH     CLOUDY    43  37  79 W15G23    29.77R
MOSBY          CLOUDY    43  39  87 SW9       29.77R
WARRENSBURG    CLOUDY    39  37  93 SW12      29.80R FOG     WCI  32
WHITEMAN AFB   CLOUDY    40  38  95 W14G23    29.78R FOG     WCI  32
CLINTON        CLOUDY    43  41  93 SW18G26   29.81R FOG     WCI  34
SEDALIA        CLOUDY    41  38  89 SW15G23   29.80R WCI  33
WARSAW         NOT AVBL
MARSHALL       CLOUDY    41  41 100 SW14G21   29.77  FOG     WCI  33
CHILLICOTHE      N/A     41  38  89 SW7       29.76R
KIRKSVILLE     CLOUDY    37  37 100 SW7       29.73S FOG     WCI  32

$$

MOZ041-047>049-056>058-063>065-088>090-097-031800-
...EASTERN AND SOUTHERN MISSOURI...

CITY           SKY/WX    TMP DP  RH WIND       PRES   REMARKS
ST. LOUIS INTL CLOUDY    46  41  82 SW9       29.78F
SPIRIT OF STL  CLOUDY    48  44  86 SW16G22   29.77S
COLUMBIA       CLOUDY    43  40  89 SW16      29.78R
JEFFERSON CITY CLOUDY    44  39  82 VRB3      29.80R
MEXICO         CLOUDY   N/A N/A N/A SW14      29.76R FOG
ROLLA          CLOUDY    44  42  93 SW14G23   29.78R
OSAGE BEACH    CLOUDY    48  43  81 SW12G21   29.80R
SPRINGFIELD    CLOUDY    46  44  93 SW18      29.84R
BRANSON        CLOUDY    50  48  93 SW12G24   29.89F
NEVADA         CLOUDY    41  39  93 SW18G24   29.83R WCI  32
JOPLIN         CLOUDY    47  43  86 SW23G30   29.85R
WEST PLAINS    CLOUDY    43  41  93 SW10      29.90F FOG

$$

IAZ060-094-KSZ022-034>040-054-083-096-NEZ052-066-093-031800-
...KANSAS...SOUTHEAST NEBRASKA AND IOWA...

CITY           SKY/WX    TMP DP  RH WIND       PRES   REMARKS
TOPEKA         CLOUDY    48  36  63 W12G24    29.78R
MANHATTAN      CLOUDY    45  34  65 NW8G16    29.81R
EMPORIA        PTSUNNY   48  38  68 W16G31    29.79R
CHANUTE        CLOUDY    46  42  86 SW14G22   29.83R
WICHITA        CLOUDY    44  37  76 W10       29.84R
OMAHA          CLOUDY    35  29  78 NW17G24   29.78R WCI  25
LINCOLN        CLOUDY    37  27  67 NW21G30   29.82R WCI  26
FALLS CITY     CLOUDY    39  31  72 NW21G30   29.78R WCI  29
LAMONI         CLOUDY    36  35  96 W10       29.72R FOG     WCI  28
DES MOINES     DRIZZLE   35  32  88 NW15      29.72R FOG     WCI  25

$$




USA.gov is the U.S. government's official web portal to all federal, state and local government web resources and services.